Hlavní strana
METAR-TAF:

METAR-TAF

Letiště :

Southern Illinois Airport

Carbondale / Murphysboro, Illinois, Spojené státy americké

zeměpisná šířka: 37-46-59N, zeměpisná délka: 089-14-42W, výška: 125 m

Aktuální stav počasí

Zpráva byla vytvořena před 11 minutami, v 01:52 UTC
Severozápadní vítr 8 kt
Teplota 3°C
Vlhkost vzduchu 93%
Tlak 1016 hPa
Viditelnost: 16.1 km
Oblačno až skoro zataženo ve výšce 700 ft
Zataženo ve výšce 1300 ft

METAR: KMDH 260152Z 31008KT 10SM BKN007 OVC013 03/02 A2999 RMK AO2 SLP156 T00330022

Čas: 20:03 (02:03 UTC)


TAF: chybějící

Stav a předpovědi počasí z více než 4 000 letišť (zprávy METAR a TAF).

Červené a žluté tečky na mapě představují dostupné meteorologické stanice.

Když kurzor umístíte na tečku, zobrazí se název stanice.

Pak kliknutím zobrazíte stav a předpověď počasí.

Chcete-li změnit mapu, kliknutím na zelené tlačítko se znaménkem +mapu přiblížíte, kliknutím na zelené tlačítko se znaménkem – mapu oddálíte a kliknutím na zelené šipky přejdete na sousední mapy.


METAR-TAF: